Regional Weather Roundup
Issued by NWS

Home | Current Version | Previous Version | Text Only | Print | Product List | Glossary On
Versions: 1 2 3 4 5 6 7 8 9 10 11 12 13 14 15 16 17 18 19 20 21 22 23 24 25 26 27 28 29 30 31 32 33 34 35 36 37 38 39 40 41 42 43 44 45 46 47 48 49 50
000
ASUS43 KTOP 011959
RWRKS

WEATHER ROUNDUP FOR KANSAS
NATIONAL WEATHER SERVICE GOODLAND KS
300 PM CDT MON SEP 01 2014

NOTE:  "FAIR" INDICATES FEW OR NO CLOUDS BELOW 12,000 FEET WITH NO
SIGNIFICANT WEATHER AND/OR OBSTRUCTIONS TO VISIBILITY.

KSZ001>006-013>018-027>032-041>047-012100-
NORTHWEST KANSAS

CITY           SKY/WX    TMP DP  RH WIND       PRES   REMARKS
GOODLAND       SUNNY     78  46  32 CALM      29.99F
HAYS           MOSUNNY   79  61  53 E7        29.93R
HILL CITY      SUNNY     80  55  42 VRB5      29.94F
RUSSELL        CLOUDY    78  62  57 SE7       29.91S
$$

KSZ061>065-074>080-084>089-012100-
SOUTHWEST KANSAS

CITY           SKY/WX    TMP DP  RH WIND       PRES   REMARKS
DODGE CITY     CLOUDY    77  63  61 NE10      29.92F
ELKHART          N/A     84  55  36 E7          N/A
GARDEN CITY    SUNNY     82  57  42 E12       29.93F
GREAT BEND     CLOUDY    73  64  73 E8        29.92F
LIBERAL        SUNNY     84  63  48 E12G18    29.93S
$$

KSZ066>073-081>083-090>101-012100-
SOUTHEAST KANSAS

CITY           SKY/WX    TMP DP  RH WIND       PRES   REMARKS
CHANUTE        CLOUDY    82  69  64 S15       29.88F
COFFEYVILLE    CLOUDY    83  71  67 SE5       29.86F
HUTCHINSON     CLOUDY    80  66  62 NE7       29.88F
MEDICINE LODGE   N/A     91  70  49 E9        29.81S HX  96
NEWTON         CLOUDY    75  64  69 NE8       29.92S
PARSONS        PTSUNNY   82  69  64 S13G18    29.88F
WICHITA INTL   PTSUNNY   85  69  58 E9        29.85F
WICHITA JABRA  CLOUDY    80  69  69 E3        29.86F
WINFIELD       PTSUNNY   89  72  56 SE13      29.84F HX  96
$$

KSZ007>012-019>026-033>040-048>060-102>105-012100-
NORTHEAST KANSAS

CITY           SKY/WX    TMP DP  RH WIND       PRES   REMARKS
CONCORDIA      PTSUNNY   78  64  61 CALM      29.91F
EMPORIA        CLOUDY    76  67  73 SE7       29.89F
LAWRENCE       CLOUDY   N/A N/A N/A W6        29.90F
MANHATTAN      CLOUDY    78  66  66 VRB7      29.89F
OLATHE IND     CLOUDY    79  67  66 S9        29.91S
OLATHE EXE     CLOUDY    78  66  66 SW9       29.90F
SALINA         CLOUDY    77  65  66 SE6       29.90F
TOPEKA BILLARD CLOUDY    80  67  64 W5        29.90F
TOPEKA FORBES  CLOUDY    78  66  66 SW6       29.90F
$$



USA.gov is the U.S. government's official web portal to all federal, state and local government web resources and services.